Location: Goudex
(43.3760°N, 0.9543°E)
Time: 21:58:42
(UTC+00:00)

Tianhe-1 - Visible Passes

Search period start: 19 June 2021 00:00
Search period end: 29 June 2021 00:00
Orbit: 375 x 386 km, 41.5° (Epoch: 19 June)

Date Brightness Start Highest point End Pass type
(mag) Time Alt. Az. Time Alt. Az. Time Alt. Az.
20 Jun 3.2 02:49:34 14° S 02:50:33 15° SSE 02:52:30 10° ESE visible
21 Jun 2.1 03:23:22 12° SW 03:25:58 33° SSE 03:28:52 10° E visible
22 Jun 2.5 02:25:01 22° SSE 02:25:08 22° SSE 02:27:40 10° ESE visible
23 Jun 1.5 02:58:44 19° SW 03:00:37 44° SSE 03:03:38 10° E visible
24 Jun 2.3 02:00:21 29° SE 02:00:21 29° SE 02:02:34 10° E visible
24 Jun 1.1 03:33:08 10° WSW 03:36:14 61° S 03:39:21 10° E visible
25 Jun 1.2 02:34:05 32° SW 02:35:15 54° S 02:38:20 10° E visible
26 Jun 2.7 01:35:45 24° ESE 01:35:45 24° ESE 01:37:18 10° E visible
26 Jun 1.1 03:07:51 11° W 03:10:52 60° S 03:13:59 10° ESE visible
27 Jun 1.0 02:09:35 57° SSW 02:09:52 61° S 02:12:59 10° E visible
28 Jun 3.7 01:11:26 14° E 01:11:26 14° E 01:11:56 10° E visible
28 Jun 1.1 02:43:34 20° W 02:45:28 53° S 02:48:32 10° ESE visible
